Location: Boiro
(42.6475°N, 8.8834°W)
Time: 22:41:55
(UTC+01:00)

A-11 Canister half - Pass Details

Date: 07 December 2021
Orbit: 1516 x 1684 km, 47.2° (Epoch: 18 January)

Event Time Altitude Azimuth Distance (km) Brightness Sun altitude
Rises 09:05:08 0° 255° (WSW) 4,754 11.2 1.2°
Reaches altitude 10° 09:08:10 10° 257° (WSW) 3,793 10.7 1.7°
Maximum altitude 09:17:54 78° 344° (NNW) 1,667 9.2 3.1°
Drops below altitude 10° 09:28:00 10° 71° (ENE) 3,924 11.7 4.6°
Sets 09:31:13 0° 73° (ENE) 4,925 12.2 5.1°
